Temp
9 9 8 8 7 7 7 7 4 5 5 5 4 4 2 1 1 1 1 0 -0 -0 0 0 0 -1 -1 -2 -4 -5 -4 -4 -3 -3 -2 -2 -2 -2
9 8 7 7 6 6 5 5 4 3 3 2 1 0 -1 -1 -1 -1 -0 -1 -2 -2 -2 -2 -2 -3 -4 -6 -6 -5 -5 -4 -4 -4 -3 -3 -2 -2
8 7 6 5 5 4 3 1 2 2 2 1 1 0 -0 -4 -1 -1 -2 -2 -3 -3 -3 -2 -3 -3 -6 -6 -6 -6 -5 -5 -5 -4 -4 -3 -3 -3
5 5 4 4 3 2 1 1 1 1 0 0 -1 -1 -4 -1 -1 -2 -2 -3 -4 -4 -4 -3 -3 -4 -5 -5 -7 -6 -6 -6 -5 -5 -5 -5 -4 -4
3 3 2 2 2 1 1 0 0 -1 -2 -1 -3 -2 -2 -2 -3 -4 -4 -4 -4 -4 -3 -4 -5 -5 -5 -5 -7 -7 -7 -6 -6 -6 -6 -5 -5 -5
1 1 1 1 1 0 -0 -1 -2 -1 -3 -3 -3 -4 -4 -4 -5 -5 -5 -6 -6 -5 -5 -5 -5 -5 -5 -5 -5 -5 -5 -5 -6 -7 -7 -6 -6 -6
1 1 0 -0 -0 -1 -1 -1 -3 -2 -2 -5 -5 -5 -5 -6 -6 -8 -8 -8 -8 -6 -6 -5 -5 -5 -4 -5 -5 -5 -5 -5 -5 -6 -7 -6 -6 -6
1 -0 -1 -1 -1 -2 -2 -3 -4 -4 -5 -6 -6 -6 -6 -7 -8 -9 -9 -9 -9 -8 -7 -8 -8 -6 -5 -5 -5 -5 -5 -5 -6 -8 -7 -7 -7 -6
-1 -1 -1 -3 -2 -3 -4 -4 -4 -5 -6 -7 -7 -7 -8 -8 -8 -8 -9 -9 -10 -8 -8 -8 -6 -6 -6 -5 -5 -5 -5 -5 -5 -7 -8 -7 -7 -7
-1 -2 -3 -3 -4 -4 -4 -5 -5 -5 -6 -7 -8 -8 -8 -8 -9 -9 -9 -9 -9 -7 -8 -9 -6 -7 -7 -6 -5 -5 -5 -6 -6 -6 -8 -7 -7 -7
-3 -3 -4 -4 -4 -5 -6 -7 -7 -7 -7 -7 -7 -8 -8 -8 -8 -9 -8 -9 -8 -7 -7 -9 -7 -9 -8 -6 -6 -6 -6 -6 -6 -6 -6 -7 -8 -8
-4 -4 -5 -4 -5 -6 -8 -8 -8 -8 -8 -7 -7 -7 -7 -7 -8 -8 -8 -8 -9 -9 -9 -9 -9 -10 -10 -8 -7 -7 -6 -6 -6 -6 -6 -6 -6 -8
-5 -5 -6 -6 -8 -8 -9 -9 -8 -9 -8 -8 -7 -7 -7 -7 -7 -7 -8 -8 -8 -8 -7 -10 -8 -9 -11 -9 -7 -6 -6 -6 -6 -5 -5 -5 -6 -7
-6 -7 -7 -8 -8 -8 -8 -8 -8 -8 -8 -8 -7 -7 -7 -7 -7 -7 -7 -8 -8 -7 -7 -8 -9 -8 -9 -9 -8 -6 -6 -6 -6 -5 -6 -6 -6 -7
-7 -7 -8 -8 -8 -8 -8 -8 -8 -8 -8 -8 -8 -7 -7 -7 -7 -7 -7 -7 -6 -6 -7 -7 -8 -8 -9 -9 -9 -7 -7 -5 -6 -6 -6 -7 -6 -6
-7 -8 -8 -8 -8 -8 -8 -8 -9 -9 -8 -8 -8 -7 -7 -7 -7 -7 -7 -6 -6 -5 -6 -7 -7 -8 -8 -8 -9 -7 -6 -9 -6 -6 -7 -6 -6 -6
-8 -8 -8 -8 -8 -8 -8 -8 -8 -8 -8 -8 -7 -7 -7 -7 -7 -7 -7 -7 -7 -7 -6 -7 -8 -8 -8 -8 -8 -7 -7 -7 -7 -7 -8 -7 -5 -5
-9 -9 -9 -9 -8 -8 -8 -7 -8 -8 -8 -8 -8 -8 -7 -7 -7 -7 -7 -7 -7 -7 -7 -7 -8 -8 -7 -8 -8 -7 -8 -8 -7 -7 -8 -9 -7 -6
-9 -9 -8 -8 -8 -8 -8 -8 -8 -8 -8 -8 -8 -8 -8 -8 -8 -8 -8 -7 -7 -7 -7 -7 -8 -9 -9 -10 -8 -9 -8 -8 -8 -7 -7 -7 -7 -4
-9 -9 -8 -8 -8 -8 -8 -8 -8 -8 -8 -8 -8 -8 -8 -8 -8 -8 -8 -8 -7 -7 -8 -7 -7 -8 -9 -9 -9 -7 -8 -8 -7 -7 -6 -6 -6 -5
-9 -9 -9 -9 -9 -8 -8 -8 -8 -8 -8 -8 -8 -8 -8 -8 -8 -9 -8 -7 -8 -8 -8 -8 -7 -8 -8 -9 -9 -8 -7 -7 -8 -7 -6 -6 -5 -5
-9 -9 -9 -9 -9 -8 -8 -8 -8 -8 -8 -8 -7 -8 -8 -8 -9 -9 -8 -8 -7 -8 -8 -7 -8 -9 -9 -9 -8 -8 -7 -6 -6 -6 -6 -6 -7 -7
-9 -9 -9 -9 -9 -8 -8 -8 -8 -8 -8 -8 -8 -8 -8 -8 -8 -8 -9 -8 -7 -8 -8 -8 -9 -9 -8 -9 -9 -8 -7 -6 -6 -6 -4 -6 -6 -6
Height
1490 1493 1495 1497 1498 1499 1499 1499 1506 1504 1507 1510 1509 1510 1510 1508 1507 1504 1501 1501 1500 1497 1493 1491 1489 1485 1482 1480 1478 1478 1477 1475 1475 1474 1474 1473 1471 1471
1481 1484 1487 1488 1491 1492 1493 1492 1492 1501 1499 1500 1499 1502 1504 1501 1500 1497 1494 1492 1492 1490 1485 1481 1477 1474 1472 1471 1469 1469 1468 1468 1466 1464 1463 1463 1462 1461
1472 1475 1478 1481 1482 1486 1485 1489 1490 1491 1496 1494 1493 1494 1494 1494 1492 1490 1488 1486 1484 1482 1477 1473 1468 1464 1462 1462 1460 1461 1459 1457 1456 1455 1453 1452 1452 1451
1464 1467 1472 1474 1478 1480 1481 1485 1486 1488 1489 1487 1486 1486 1487 1488 1484 1482 1480 1477 1475 1472 1469 1465 1460 1456 1453 1451 1451 1451 1449 1447 1445 1444 1442 1441 1441 1440
1463 1467 1470 1472 1475 1478 1481 1479 1481 1481 1483 1482 1479 1479 1478 1478 1476 1473 1471 1467 1465 1463 1461 1457 1453 1449 1446 1443 1442 1441 1439 1436 1435 1433 1432 1431 1430 1429
1461 1466 1467 1470 1471 1473 1475 1477 1478 1476 1476 1477 1474 1473 1470 1470 1468 1465 1462 1459 1456 1455 1453 1448 1445 1442 1439 1436 1433 1431 1428 1425 1423 1421 1420 1419 1419 1418
1461 1464 1467 1466 1468 1468 1469 1471 1474 1472 1468 1470 1470 1468 1464 1462 1461 1460 1456 1451 1449 1448 1443 1440 1436 1433 1430 1427 1425 1422 1419 1416 1413 1411 1410 1409 1408 1407
1460 1463 1464 1465 1465 1465 1464 1467 1471 1468 1465 1465 1465 1461 1458 1457 1456 1454 1450 1448 1443 1442 1436 1431 1430 1424 1422 1418 1416 1412 1409 1406 1404 1402 1400 1398 1397 1396
1459 1461 1461 1461 1462 1463 1462 1461 1464 1464 1462 1461 1459 1456 1452 1451 1450 1447 1445 1443 1440 1435 1430 1421 1422 1416 1413 1409 1407 1403 1400 1397 1394 1392 1390 1388 1387 1386
1457 1458 1459 1459 1458 1460 1458 1457 1459 1459 1457 1455 1452 1449 1447 1446 1445 1442 1439 1437 1433 1429 1424 1414 1412 1407 1403 1398 1396 1393 1391 1389 1386 1382 1380 1379 1377 1375
1456 1455 1456 1455 1454 1455 1453 1453 1453 1452 1450 1448 1445 1444 1442 1441 1440 1437 1435 1431 1425 1420 1417 1410 1403 1397 1392 1387 1385 1383 1381 1378 1376 1372 1369 1366 1364 1363
1453 1453 1453 1452 1452 1451 1451 1450 1448 1446 1443 1441 1440 1439 1438 1437 1435 1433 1429 1424 1420 1412 1410 1406 1398 1393 1382 1377 1376 1374 1371 1369 1365 1362 1358 1355 1353 1350
1451 1450 1449 1448 1448 1448 1447 1445 1443 1441 1438 1437 1435 1434 1433 1432 1429 1427 1423 1418 1414 1409 1407 1401 1392 1389 1386 1373 1366 1365 1362 1358 1353 1349 1346 1343 1341 1338
1448 1446 1445 1444 1444 1443 1441 1440 1438 1436 1435 1434 1432 1430 1428 1427 1424 1421 1418 1414 1410 1404 1401 1397 1388 1384 1378 1369 1359 1355 1352 1348 1344 1338 1335 1333 1331 1329
1445 1444 1443 1441 1440 1438 1436 1435 1434 1433 1432 1431 1429 1426 1424 1421 1419 1416 1413 1408 1402 1399 1394 1390 1383 1378 1372 1364 1355 1347 1343 1338 1335 1330 1327 1323 1319 1317
1443 1442 1440 1438 1436 1435 1434 1433 1432 1430 1428 1426 1424 1421 1419 1417 1414 1410 1405 1400 1394 1390 1387 1382 1377 1371 1363 1357 1351 1341 1338 1332 1327 1322 1318 1312 1308 1305
1440 1439 1437 1436 1434 1433 1431 1430 1429 1427 1425 1422 1419 1416 1414 1410 1408 1405 1400 1395 1389 1382 1377 1374 1369 1362 1356 1351 1341 1335 1330 1323 1319 1313 1309 1301 1297 1295
1438 1437 1435 1434 1432 1431 1429 1428 1426 1424 1421 1418 1414 1411 1408 1406 1402 1399 1395 1390 1383 1377 1369 1364 1358 1353 1347 1341 1337 1326 1322 1316 1310 1306 1301 1294 1283 1283
1435 1433 1431 1430 1429 1429 1427 1425 1422 1420 1417 1413 1410 1407 1404 1401 1397 1393 1389 1383 1376 1370 1363 1357 1351 1346 1339 1331 1328 1326 1317 1310 1304 1298 1294 1288 1280 1273
1433 1431 1430 1429 1427 1425 1423 1421 1418 1416 1413 1409 1406 1402 1399 1395 1391 1387 1382 1376 1369 1363 1356 1353 1348 1342 1335 1326 1315 1309 1310 1303 1298 1290 1283 1277 1271 1265
1431 1429 1428 1426 1424 1422 1420 1417 1414 1411 1407 1403 1400 1397 1394 1390 1386 1381 1375 1370 1364 1357 1349 1344 1340 1336 1328 1320 1311 1302 1298 1297 1291 1285 1278 1272 1262 1255
1428 1426 1425 1424 1421 1418 1416 1413 1409 1406 1403 1399 1394 1391 1388 1385 1380 1374 1368 1362 1356 1350 1342 1336 1330 1324 1321 1315 1305 1295 1286 1283 1281 1276 1272 1267 1262 1253
1424 1423 1421 1420 1417 1414 1411 1408 1405 1401 1397 1392 1388 1385 1382 1378 1374 1369 1362 1356 1349 1341 1334 1327 1323 1319 1312 1307 1300 1291 1282 1274 1269 1262 1259 1258 1253 1248
Wind_Speed
41 41 40 37 35 34 30 28 23 22 21 19 16 15 15 17 21 28 31 32 33 33 33 33 33 32 31 30 28 28 28 28 28 29 30 29 31 29
39 41 39 38 36 35 29 29 27 23 17 13 11 14 21 25 25 28 32 33 33 32 32 31 32 31 30 29 27 28 28 29 29 29 29 31 30 31
37 38 37 34 33 27 24 23 23 22 24 24 22 24 25 23 25 29 31 32 33 32 32 31 32 32 28 26 27 28 28 28 29 30 31 31 30 31
36 35 31 29 24 21 21 19 19 18 20 21 23 21 20 24 27 30 30 30 32 33 32 31 30 27 26 25 25 26 27 28 29 29 29 30 31 31
28 25 23 20 18 17 16 15 17 17 19 21 22 22 24 24 28 30 31 31 33 33 31 27 25 23 22 24 24 25 28 29 30 31 32 32 33 33
21 17 17 16 14 14 14 15 17 17 17 20 22 23 24 27 29 31 32 30 33 32 28 22 22 23 26 25 25 25 27 29 31 31 31 32 33 34
14 14 14 13 12 11 14 14 15 15 15 19 23 24 25 25 26 25 28 28 27 30 26 26 29 30 28 25 24 24 27 28 29 30 29 30 31 32
12 11 9 9 11 10 9 10 14 15 16 20 23 24 23 24 24 24 24 23 27 24 29 32 29 33 30 28 27 27 28 27 29 30 30 31 32 32
8 9 7 5 6 8 9 11 14 15 16 18 22 21 21 22 26 25 26 25 27 29 33 38 33 35 29 29 28 27 27 24 24 26 27 28 29 30
3 1 4 6 6 11 13 13 15 16 16 17 20 22 22 19 20 24 26 26 28 30 28 32 32 32 34 35 33 25 21 23 25 25 26 27 29 29
2 4 6 9 11 12 11 13 16 16 17 19 19 17 17 17 17 21 23 24 29 31 28 24 34 34 39 37 28 27 30 28 28 29 29 29 30 31
6 8 10 11 11 9 10 16 18 17 18 16 13 12 12 13 15 18 21 23 25 28 20 28 34 28 26 31 32 37 34 32 28 28 29 29 30 31
9 10 10 11 7 8 9 16 16 14 15 13 12 11 13 14 15 15 18 22 24 28 28 26 35 33 26 37 41 40 37 35 34 32 29 27 25 25
10 10 10 8 10 12 13 12 10 11 10 10 12 13 14 13 13 15 16 20 24 28 25 24 29 30 31 37 44 44 41 38 36 32 26 26 25 24
12 11 10 11 11 10 9 8 8 8 9 12 13 14 13 13 15 16 19 23 25 23 21 20 22 23 26 33 39 41 40 37 30 29 32 30 29 28
9 9 10 10 10 8 7 6 7 9 11 14 16 16 13 14 15 19 25 24 27 27 26 26 24 26 29 31 33 38 35 35 33 32 34 33 32 31
11 10 10 8 6 5 4 6 8 10 13 15 17 15 15 17 17 21 24 26 29 33 34 29 26 27 28 30 33 34 33 35 35 37 36 36 32 29
10 10 9 8 7 6 7 7 9 12 14 17 17 15 17 19 22 23 26 28 32 34 35 32 31 30 30 32 27 32 35 37 37 36 35 37 41 35
10 9 8 7 6 8 10 12 13 14 16 18 17 17 18 20 23 26 29 30 34 33 33 34 34 32 33 32 35 25 32 37 34 36 32 33 36 34
10 8 7 7 8 9 12 13 14 16 18 19 18 17 18 21 24 27 30 32 33 35 36 34 34 33 33 37 42 42 30 32 34 35 34 34 34 32
9 8 8 8 9 11 13 15 17 19 21 23 22 19 17 20 24 28 31 31 33 35 38 38 37 33 32 34 35 40 39 32 30 31 30 31 33 33
9 9 9 10 12 14 15 17 19 20 21 23 22 18 18 21 26 30 32 35 37 37 38 40 40 35 32 32 37 41 43 37 31 27 25 25 24 27
10 11 11 11 14 16 18 20 21 22 23 24 24 20 20 23 26 29 34 35 38 40 41 42 36 35 35 33 32 38 41 39 35 36 33 26 25 25
Wind_Direction
237 239 241 242 242 241 237 240 241 228 234 245 248 258 263 272 284 288 292 296 297 300 301 300 300 298 292 288 285 283 281 278 275 275 275 273 272 268
233 236 238 239 240 239 240 237 227 238 229 225 235 262 274 280 289 294 296 296 298 299 299 300 300 297 292 289 286 283 281 279 277 275 271 272 269 269
231 231 232 232 232 236 233 228 233 239 254 258 263 267 277 299 292 289 292 295 297 297 301 302 299 294 291 287 283 280 278 277 276 274 273 273 271 269
223 223 223 227 232 232 240 244 257 262 262 270 277 290 294 284 288 291 294 297 300 304 305 302 295 293 292 290 285 282 280 278 276 276 274 272 271 269
214 217 221 229 233 237 246 254 259 262 274 278 293 288 287 295 297 300 303 305 305 306 307 304 299 296 295 291 288 284 279 275 274 273 273 272 270 270
210 222 232 229 233 240 252 262 263 275 294 286 286 295 297 300 303 306 307 310 310 311 312 310 305 303 298 300 292 288 286 282 278 277 274 271 270 268
210 220 228 234 242 251 257 283 293 278 284 288 288 292 297 303 306 306 304 309 309 315 316 317 314 312 314 308 304 295 288 285 284 282 276 274 271 269
216 217 234 250 261 287 295 276 287 293 290 284 285 291 298 301 303 306 308 310 310 313 312 307 309 311 314 309 301 297 295 291 286 280 277 274 271 269
208 231 253 287 280 284 282 284 280 278 273 279 285 292 296 301 304 306 304 302 299 305 308 306 313 309 314 308 307 305 299 291 288 286 282 278 273 271
252 287 288 287 286 285 291 291 283 281 285 288 291 296 299 303 301 300 301 299 301 309 309 300 318 311 314 312 313 309 303 299 299 293 285 281 276 273
294 295 293 301 302 294 294 293 293 294 295 290 292 295 295 294 296 295 301 303 307 312 314 302 317 312 313 314 317 320 319 315 309 299 292 285 279 275
316 309 307 308 303 305 293 287 289 301 301 304 305 302 301 302 302 301 305 306 309 312 311 313 313 317 317 314 314 315 315 315 310 304 298 293 287 278
313 318 317 310 309 276 275 290 298 303 302 310 315 318 315 312 310 309 310 311 312 306 323 313 310 310 295 305 310 313 316 317 314 311 306 299 290 280
320 322 319 312 298 296 297 297 298 304 311 314 317 319 315 316 317 319 317 313 307 307 318 308 300 306 305 304 305 314 315 315 314 312 311 308 299 289
327 323 316 311 310 315 313 311 312 315 315 314 315 318 321 323 323 319 321 318 313 321 323 322 313 310 304 303 306 312 316 318 313 312 313 309 302 295
322 324 324 322 320 321 322 319 316 316 318 321 322 321 318 320 323 325 330 329 325 330 333 333 326 317 312 312 309 309 317 306 318 317 316 308 304 301
332 328 326 322 319 318 321 320 321 321 320 320 319 315 319 321 322 327 331 332 330 330 329 332 328 322 318 318 314 316 317 317 321 321 317 311 305 304
330 330 332 333 335 335 332 329 328 326 323 322 319 312 316 318 318 326 334 331 328 330 330 337 337 332 329 324 319 318 317 317 322 318 312 304 307 310
328 326 330 331 331 331 331 329 332 331 328 324 317 309 310 313 316 324 328 329 330 331 333 337 337 333 319 305 323 313 306 314 314 316 317 311 305 307
321 322 323 322 324 328 329 327 326 327 329 326 317 308 308 314 322 324 327 329 331 332 329 332 336 333 319 309 309 321 324 315 316 315 318 315 308 311
315 313 312 314 321 327 327 327 325 325 326 328 322 310 306 310 318 325 327 331 330 329 326 329 333 330 322 322 307 309 319 320 315 313 315 312 313 312
310 307 306 310 315 321 323 323 323 324 322 322 322 312 306 310 318 322 327 329 331 329 326 330 332 328 318 311 305 311 321 326 326 322 317 313 299 289
307 303 301 304 309 315 318 319 320 322 323 323 324 315 309 313 321 323 326 327 328 328 328 324 316 319 319 311 305 310 320 324 326 325 321 324 317 308